User: anonymous   Login
Location: Avully
(45.9633°N, 6.0228°E)
Time: 16:59:53
(UTC+00:00)
Language:

USA 234 - Orbit

View from above orbital plane
View from above orbital plane
View from above satellite
View from above satellite

Ground track
Ground track

The orbit data is extracted from the following two-line orbital elements,

1 38109U 12014A   24190.01282250 0.00000030  00000-0  53688-4 0    05
2 38109 123.0030  75.0897 0004822 183.7036 176.2964 13.41469939    06
Epoch (UTC): 08 July 2024 00:18:27
Eccentricity: 0.0004822
inclination: 123.0030°
perigee height: 1100 km
apogee height: 1107 km
right ascension of ascending node: 75.0897°
argument of perigee: 183.7036°
revolutions per day: 13.41469939
mean anomaly at epoch: 176.2964°
orbit number at epoch: 0

The dashed part of the orbit path shows where the satellite is in the earth's shadow,  

DLR